Location: Brunembert
(50.7122°N, 1.8935°E)
Time: 03:35:43
(UTC+00:00)

SeaSat 1 - Pass Details

Date: 22 April 2021
Orbit: 744 x 747 km, 108.0° (Epoch: 06 May)

Event Time Altitude Azimuth Distance (km) Brightness Sun altitude
Rises 21:46:04 0° 39° (NE) 3,204 5.9 -21.2°
Reaches altitude 10° 21:48:48 10° 54° (NE) 2,274 5.0 -21.4°
Enters shadow 21:51:18 20° 82° (E) 1,665 4.0 -21.6°
